This is the latest recevied weather packets stored in our database for station/object EA5GK-10. If no packets are shown the sender has not sent any weather packets the latest 10 day(s).
| Time | Temp. | Humidity | Pressure | Rain* | Wind** | Luminosity | Snow |
|---|---|---|---|---|---|---|---|
| 1788076503 | 26.11° C | 44% | 1019 hPa | - | - | - | - |
| 1788075603 | 25.56° C | 45% | 1018.9 hPa | - | - | - | - |
| 1788074703 | 24.44° C | 47% | 1018.8 hPa | - | - | - | - |
| 1788073803 | 23.89° C | 48% | 1018.8 hPa | - | - | - | - |
| 1788072903 | 22.78° C | 50% | 1018.9 hPa | - | - | - | - |
| 1788072003 | 21.67° C | 53% | 1018.9 hPa | - | - | - | - |
| 1788071102 | 21.11° C | 53% | 1018.7 hPa | - | - | - | - |
| 1788070202 | 20.56° C | 53% | 1018.8 hPa | - | - | - | - |
| 1788069302 | 20.56° C | 54% | 1018.7 hPa | - | - | - | - |
| 1788068402 | 20.56° C | 54% | 1018.6 hPa | - | - | - | - |
| 1788067502 | 20.56° C | 53% | 1018.5 hPa | - | - | - | - |
| 1788066602 | 21.11° C | 54% | 1018.5 hPa | - | - | - | - |
| 1788065702 | 21.11° C | 54% | 1018.5 hPa | - | - | - | - |
| 1788064802 | 21.11° C | 53% | 1018.5 hPa | - | - | - | - |
| 1788063901 | 21.11° C | 53% | 1018.4 hPa | - | - | - | - |
| 1788063001 | 21.67° C | 52% | 1018.5 hPa | - | - | - | - |
| 1788062101 | 21.67° C | 52% | 1018.3 hPa | - | - | - | - |
| 1788061201 | 21.67° C | 52% | 1018.4 hPa | - | - | - | - |
| 1788060301 | 22.22° C | 52% | 1018.4 hPa | - | - | - | - |
| 1788059401 | 22.22° C | 52% | 1018.5 hPa | - | - | - | - |
| 1788058501 | 22.22° C | 51% | 1018.6 hPa | - | - | - | - |
| 1788057600 | 22.78° C | 50% | 1018.6 hPa | - | - | - | - |
| 1788056700 | 22.78° C | 51% | 1018.5 hPa | - | - | - | - |
| 1788055800 | 22.78° C | 51% | 1018.6 hPa | - | - | - | - |
| 1788054900 | 23.33° C | 50% | 1018.7 hPa | - | - | - | - |
* Rain since midnight (hover to see other rain measurements)
** Current wind speed in m/s (hover to see current wind gust speed)